[[{"header":{"parameterUnit":"m.s-1","parameterCategory":1,"la1":30.2992,"la2":30.254,"lo1":-89.0895,"lo2":-89.0443,"dy":0.0025,"dx":0.0025,"nx":19,"ny":19,"refTime":"2026-03-24T21:00:00:Z","depth":0,"parameterNumber":2,"parameterNumberName":"U-component_of_WINDS"},"data":[0,0,0,-3.5649,-3.5652,-3.5775,-3.5776,-3.5946,-3.5948,0,0,0,0,0,0,0,0,0,0,0,-3.5619,-3.562,-3.5649,-3.5653,-3.5775,-3.5776,-3.5946,-3.5948,0,0,0,0,0,0,0,0,0,0,0,-3.5619,-3.562,-3.5622,-3.5653,-3.5775,-3.5776,-3.5946,-3.5848,0,0,0,0,0,0,0,0,0,0,-3.5727,-3.5704,-3.562,-3.5622,-3.5654,-3.5775,-3.5776,-3.5844,-3.5855,-3.5896,0,-3.5932,0,-3.5943,-3.596,-3.5961,0,0,0,-3.5648,-3.5695,-3.5723,-3.5622,-3.5655,-3.5775,-3.5719,-3.585,-3.5862,-3.591,-3.5935,-3.5941,-3.5946,-3.5961,-3.5962,-3.6211,-3.6213,0,0,-3.5641,-3.5645,-3.5714,-3.5731,-3.5711,-3.5715,-3.5723,-3.5857,-3.5884,-3.5935,-3.5944,-3.5949,-3.5962,-3.5964,-3.621,-3.6212,0,0,0,-3.5625,-3.564,-3.5664,-3.5725,-3.5746,-3.5718,-3.5727,-3.5878,-3.5886,-3.5946,-3.5951,-3.5963,-3.5966,-3.6209,-3.6211,-3.628,0,0,0,-3.562,-3.563,-3.5661,-3.5665,-3.5743,-3.5813,-3.5746,-3.5876,-3.5891,-3.595,-3.5963,-3.5967,-3.6207,-3.621,-3.6275,-3.6311,0,0,0,-3.5609,-3.5629,-3.5649,-3.5665,-3.5718,-3.5811,-3.5826,-3.588,-3.5895,-3.5961,-3.5968,-3.6206,-3.6209,-3.627,-3.6304,-3.6377,0,0,0,-3.5598,-3.5709,-3.565,-3.5776,-3.5717,-3.5853,-3.5825,-3.5927,-3.5992,-3.5964,-3.6207,-3.621,-3.6269,-3.6299,-3.6372,-3.6437,-3.6465,0,0,-3.5739,-3.5726,-3.58,-3.5751,-3.5898,-3.5834,-3.5993,-3.605,-3.6054,-3.6159,-3.6165,-3.6276,-3.6303,-3.6376,-3.6626,-3.6648,0,0,0,-3.5846,-3.5899,-3.5938,-3.6,-3.6047,-3.609,-3.6122,-3.6144,-3.6233,-3.6108,-3.6324,-3.634,-3.6382,-3.6413,-3.6432,-3.6468,-3.6226,-3.6225,-3.6225,-3.6048,-3.6048,-3.6171,-3.6187,-3.6248,-3.6282,-3.6332,-3.6368,-3.635,-3.6401,-3.6431,-3.6583,-3.6619,-3.6633,-3.6671,-3.6468,-3.6468,-3.6468,-3.6469,-3.6254,-3.6328,-3.6305,-3.6414,-3.6415,-3.6508,-3.6547,-3.6532,-3.6619,-3.6559,-3.6597,-3.6529,-3.6658,-3.6691,-3.6474,-3.6473,-3.6472,-3.6472,-3.6471,-3.6384,-3.642,-3.6445,-3.6537,-3.6608,-3.6622,-3.6708,-3.6706,-3.6705,-3.6743,-3.6774,-3.6773,-3.677,-3.6758,-3.6759,-3.6759,-3.676,-3.676,-3.6761,-3.6507,-3.6534,-3.6605,-3.6667,-3.6708,-3.6762,-3.6801,-3.6842,-3.6887,-3.6879,-3.6879,-3.6856,-3.6671,-3.6623,-3.6769,-3.6767,-3.6766,-3.6765,-3.6765,-3.671,-3.6665,-3.6775,-3.6816,-3.689,-3.6962,-3.696,-3.7045,-3.7079,-3.7122,-3.7093,-3.6957,-3.6942,-3.6927,-3.6887,-3.7092,-3.7092,-3.7092,-3.7093,-3.6818,-3.6812,-3.6925,-3.6991,-3.7057,-3.7068,-3.7195,-3.7228,-3.7255,-3.7277,-3.7249,-3.7197,-3.7182,-3.7176,-3.7156,-3.7118,-3.7378,-3.7378,-3.7378,-3.6942,-3.6943,-3.7049,-3.7075,-3.7134,-3.7185,-3.7305,-3.7384,-3.7406,-3.739,-3.7294,-3.7282,-3.7199,-3.7172,-3.7148,-3.7117,-3.7048,0,0]},{"header":{"parameterUnit":"m.s-1","parameterCategory":1,"la1":30.2992,"la2":30.254,"lo1":-89.0895,"lo2":-89.0443,"dy":0.0025,"dx":0.0025,"nx":19,"ny":19,"refTime":"2026-03-24T21:00:00:Z","depth":0,"parameterNumber":3,"parameterNumberName":"V-component_of_WINDS"},"data":[0,0,0,3.6887,3.6888,3.6956,3.6956,3.7014,3.7015,0,0,0,0,0,0,0,0,0,0,0,3.685,3.685,3.6887,3.6888,3.6956,3.6956,3.7014,3.7015,0,0,0,0,0,0,0,0,0,0,0,3.685,3.685,3.685,3.6888,3.6956,3.6956,3.7014,3.6973,0,0,0,0,0,0,0,0,0,0,3.6912,3.6862,3.685,3.685,3.6889,3.6955,3.6956,3.6972,3.6976,3.6972,0,3.6965,0,3.6991,3.7017,3.7017,0,0,0,3.69,3.6859,3.6892,3.685,3.6889,3.6955,3.6929,3.6974,3.6979,3.6977,3.6966,3.6969,3.6992,3.7017,3.7017,3.6959,3.6958,0,0,3.6896,3.6853,3.6889,3.6894,3.6883,3.6926,3.6931,3.6977,3.6962,3.6966,3.6971,3.6993,3.7017,3.7017,3.696,3.6959,0,0,0,3.6878,3.685,3.6883,3.6891,3.6906,3.6928,3.6933,3.696,3.6974,3.6971,3.6993,3.7017,3.7018,3.6961,3.696,3.6877,0,0,0,3.6876,3.6839,3.6881,3.6855,3.6904,3.6934,3.6913,3.6971,3.6978,3.6993,3.7017,3.7018,3.6962,3.696,3.6881,3.6844,0,0,0,3.6852,3.6837,3.6841,3.6852,3.688,3.6934,3.6952,3.6973,3.699,3.7017,3.7018,3.6963,3.6961,3.6885,3.6851,3.6817,0,0,0,3.6813,3.6764,3.6839,3.6794,3.6879,3.6883,3.6952,3.6956,3.6969,3.7018,3.6962,3.696,3.6886,3.6855,3.682,3.6779,3.6758,0,0,3.6728,3.6753,3.673,3.6799,3.6778,3.6876,3.6844,3.6895,3.6937,3.6949,3.6949,3.688,3.6851,3.6817,3.6659,3.6642,0,0,0,3.6688,3.6671,3.6675,3.6687,3.6727,3.6759,3.6821,3.6841,3.6855,3.6935,3.686,3.6844,3.6826,3.6809,3.6794,3.6782,3.695,3.695,3.6951,3.6503,3.6562,3.6529,3.6595,3.6606,3.6673,3.6686,3.6725,3.6778,3.676,3.6763,3.666,3.6637,3.6627,3.6613,3.6747,3.6747,3.6747,3.6746,3.6384,3.6369,3.6445,3.644,3.6502,3.6498,3.6561,3.66,3.6605,3.6661,3.6648,3.6704,3.6607,3.6598,3.6741,3.6742,3.6742,3.6743,3.6743,3.6268,3.6271,3.6298,3.6323,3.6336,3.6406,3.6409,3.6465,3.6517,3.6505,3.6515,3.6516,3.6524,3.6506,3.6506,3.6506,3.6505,3.6505,3.6505,3.6136,3.617,3.6166,3.6207,3.6224,3.6253,3.6322,3.6339,3.6373,3.6414,3.6414,3.6469,3.6587,3.6615,3.6499,3.65,3.6501,3.6502,3.6502,3.599,3.6034,3.6026,3.6043,3.6098,3.6108,3.6182,3.6213,3.6236,3.6235,3.6295,3.6374,3.6402,3.6414,3.6437,3.6283,3.6283,3.6283,3.6283,3.5892,3.5914,3.5921,3.5944,3.5974,3.604,3.6031,3.6086,3.6148,3.6166,3.6197,3.6234,3.6243,3.6266,3.6281,3.6304,3.6119,3.6119,3.6119,3.5806,3.5833,3.5814,3.5878,3.5926,3.5966,3.596,3.5983,3.6063,3.6113,3.6181,3.6188,3.6248,3.6264,3.6312,3.6334,3.6377,0,0]}]]